RH
20 20 20 24 29 39 50 59 60 54 47 43 42 48 56 64 70 75 77 80 85 89 92 91 93 89 87 88 93 97 93 92 96 90 96 98 98 94
22 22 23 27 27 44 59 63 65 63 62 50 51 57 65 71 73 76 75 84 85 89 89 88 90 90 93 91 90 91 93 91 93 94 95 90 88 89
24 23 21 23 33 50 60 64 66 65 65 58 65 69 76 75 71 76 81 86 79 78 83 86 91 93 94 94 95 95 97 98 99 97 96 96 95 96
24 21 23 36 29 47 62 67 69 74 77 78 78 82 78 76 85 91 80 70 70 73 82 91 95 95 97 98 99 96 97 95 98 98 98 98 98 98
22 20 23 31 48 66 72 78 81 80 84 92 89 78 80 89 86 79 74 71 74 78 82 88 92 96 100 99 97 97 96 96 97 97 95 94 96 97
21 22 32 49 70 78 82 84 79 86 84 84 88 83 99 88 76 70 71 76 83 85 86 94 91 94 94 94 96 99 99 100 100 99 98 96 97 96
30 42 60 65 48 78 95 91 88 88 90 88 98 98 85 77 68 75 86 89 86 92 83 88 83 87 86 91 94 96 97 100 100 100 99 99 99 98
58 62 69 79 84 95 95 94 95 96 96 100 100 89 75 72 82 89 95 98 99 88 88 87 92 88 86 86 91 96 100 100 100 100 100 100 99 100
64 71 75 78 90 90 94 96 99 98 98 94 94 80 80 87 89 94 98 95 100 92 98 94 87 92 84 78 88 96 91 100 100 100 100 100 100 100
76 81 84 87 88 92 94 95 96 94 83 87 86 89 95 95 98 98 97 96 93 92 98 98 86 94 90 70 58 59 78 96 99 99 99 99 99 100
81 83 87 88 91 92 95 94 88 82 82 87 98 100 100 100 100 100 94 100 98 93 76 99 98 98 89 62 62 68 75 78 85 97 100 99 97 95
79 81 82 90 92 95 98 90 91 81 87 95 94 89 93 98 100 100 98 99 100 100 85 99 99 100 98 84 67 61 66 70 80 89 98 97 98 98
84 79 83 90 94 95 96 95 93 97 99 99 93 96 100 100 100 100 99 100 97 100 77 100 100 100 100 100 77 65 74 78 83 82 87 92 98 98
86 92 92 96 96 97 95 89 100 100 100 99 100 100 100 98 90 87 84 85 90 93 83 95 96 100 98 98 100 73 75 77 85 91 96 96 96 97
96 95 98 98 95 55 69 77 90 100 100 100 100 100 98 89 84 84 81 84 84 79 82 87 98 96 100 100 100 100 100 82 87 100 98 99 98 98
95 95 96 93 88 87 83 96 100 100 100 100 100 100 96 97 91 92 91 90 94 77 75 82 94 98 98 100 100 99 80 100 98 97 98 94 98 98
97 95 89 85 93 92 96 100 100 100 100 100 100 100 99 99 88 88 92 98 98 94 82 78 83 97 98 96 91 78 93 100 100 97 96 96 90 99
100 93 91 98 99 100 100 100 96 97 100 98 97 98 99 95 93 90 93 96 100 91 93 86 99 98 92 76 86 93 94 100 100 98 97 98 91 96
96 100 100 100 100 100 100 98 94 94 97 97 97 94 96 95 96 94 94 96 97 91 90 100 100 100 100 100 73 69 96 95 100 100 98 96 99 97
100 100 100 99 99 99 96 96 95 94 96 95 95 97 96 97 96 95 96 98 97 94 96 90 100 99 99 99 99 72 77 97 100 98 98 87 96 97
99 94 91 93 95 96 96 97 97 96 96 96 95 96 97 97 96 97 96 94 100 98 100 100 95 97 94 90 100 92 72 84 98 98 97 100 100 89
85 84 93 93 97 99 98 97 97 96 96 96 96 96 97 97 96 96 96 97 96 100 100 100 93 92 93 100 100 87 90 85 83 96 97 98 99 98
96 96 94 97 99 99 99 99 99 96 96 96 96 95 96 95 97 96 97 97 100 100 100 100 99 96 96 100 100 94 90 94 95 99 94 97 98 98
Wind_Speed
16 17 18 17 18 18 19 18 22 32 33 24 17 22 26 27 29 30 31 31 33 35 36 36 36 38 40 40 40 42 42 40 42 43 43 42 43 45
17 18 18 18 20 20 19 19 20 26 38 29 30 28 27 29 29 30 30 33 35 35 35 38 38 37 37 38 39 39 40 40 40 41 42 43 45 46
18 19 21 21 21 20 19 20 22 23 34 41 31 29 31 29 30 29 30 34 39 37 34 36 36 36 37 38 39 40 40 41 41 42 43 43 43 43
19 20 21 21 23 21 19 20 22 23 29 40 38 35 32 32 31 30 35 38 33 34 34 36 36 37 37 36 37 38 40 41 42 42 42 43 42 43
20 22 22 22 22 19 20 22 23 25 28 35 42 39 37 34 32 41 29 32 31 32 35 35 35 37 36 36 37 39 40 41 42 41 42 42 42 43
22 22 23 22 20 20 22 23 25 27 30 33 37 42 33 36 38 35 34 33 36 35 41 35 34 35 36 37 39 39 38 38 38 39 40 41 41 42
21 21 21 22 25 23 22 23 26 30 32 36 36 30 41 37 34 34 36 39 42 35 39 38 37 43 42 38 37 35 34 35 37 38 38 39 41 41
20 20 20 21 20 22 23 24 26 29 34 36 35 37 36 35 34 38 41 37 44 33 30 50 40 43 42 41 36 36 36 36 36 37 38 40 41 42
20 20 20 20 21 23 24 26 27 28 28 34 34 32 34 34 40 40 41 42 40 43 38 47 39 42 41 41 37 33 29 33 35 36 37 38 39 41
19 20 21 21 21 23 28 32 30 29 27 28 29 31 34 35 34 38 37 39 40 40 30 39 42 38 42 45 30 23 31 29 29 31 35 37 39 40
19 20 20 22 22 26 29 33 31 29 27 26 28 30 30 33 28 29 31 32 39 41 40 28 29 41 44 40 29 34 36 32 32 35 34 35 37 38
20 21 21 22 26 26 29 30 33 29 29 32 29 27 25 23 23 21 26 30 34 36 29 29 37 30 28 29 42 40 38 33 36 38 33 31 30 31
22 23 22 24 26 29 28 28 26 28 29 28 26 23 22 22 22 22 24 27 32 36 36 30 35 34 26 38 45 41 41 42 41 40 37 38 36 33
23 23 25 27 30 29 27 24 24 25 22 22 23 25 26 28 28 27 28 30 30 33 32 26 32 32 34 40 43 43 43 40 41 40 44 46 43 37
22 25 28 28 28 27 23 22 20 18 19 22 26 27 28 29 30 32 32 31 30 29 26 26 26 27 30 36 43 44 39 43 37 41 46 45 40 32
25 29 27 26 22 22 20 18 17 18 20 23 25 29 30 31 32 31 32 32 32 32 26 27 24 24 30 33 35 38 36 35 44 44 44 41 30 24
28 24 21 19 19 18 18 19 20 20 22 23 28 31 31 30 31 30 29 30 31 33 35 30 25 24 28 28 30 29 35 39 39 42 42 41 29 24
21 18 17 18 19 19 20 22 24 26 27 29 30 31 31 30 31 30 28 29 30 32 33 33 30 30 31 28 12 27 34 36 39 39 37 38 32 24
15 15 16 18 18 19 21 26 30 29 29 31 31 29 29 30 30 30 29 29 30 31 32 29 26 27 29 30 36 27 34 35 35 36 33 37 32 24
15 16 17 18 20 22 25 29 30 29 31 30 29 28 28 30 31 31 30 29 30 31 33 31 26 27 27 30 34 33 29 31 30 30 33 37 30 24
17 18 18 21 22 25 27 28 28 30 30 30 28 30 29 30 31 30 29 28 27 29 30 29 27 26 23 24 24 30 32 27 24 23 27 32 32 24
19 20 22 22 24 27 28 27 29 31 30 29 29 29 29 29 32 30 28 29 29 29 27 28 26 25 21 21 26 28 30 32 25 17 17 16 24 18
21 23 24 25 26 27 27 28 30 29 28 28 29 27 29 31 30 28 27 27 27 26 25 26 25 24 20 22 23 25 26 29 27 28 22 15 13 11
Wind_Direction
312 310 309 305 302 299 297 295 297 301 302 305 298 298 300 300 301 300 300 299 298 297 297 295 293 293 293 290 286 284 285 281 278 276 275 272 272 269
310 307 307 305 304 302 298 294 290 290 291 296 299 299 301 300 301 302 300 298 297 297 296 293 292 291 290 288 286 284 283 280 278 276 273 270 267 265
309 308 307 306 305 301 297 294 291 290 289 296 299 301 302 304 304 300 299 299 301 298 296 295 295 294 291 289 287 284 283 281 279 277 275 272 270 268
308 307 307 305 305 303 299 296 294 293 293 296 300 304 305 308 301 302 305 300 298 299 299 299 298 295 292 290 288 286 284 281 278 276 275 273 270 268
308 307 306 306 305 301 300 299 298 296 293 295 300 302 306 305 307 306 307 304 303 302 300 299 299 295 294 292 290 288 285 282 279 277 274 271 269 268
307 306 305 304 300 302 301 299 298 295 297 295 296 303 303 306 309 307 308 307 306 306 304 302 299 298 296 293 291 289 287 284 281 277 273 270 268 265
305 304 303 298 301 302 298 299 298 296 294 298 298 298 307 309 309 308 307 308 309 309 306 307 306 301 303 299 295 291 289 286 282 279 275 271 268 266
304 303 302 302 301 300 299 297 296 299 299 299 300 303 302 303 306 306 308 308 308 314 305 304 307 304 305 302 298 295 292 287 284 281 276 272 269 265
304 305 305 303 304 304 302 304 299 297 293 297 297 298 299 299 305 309 304 304 300 304 309 302 308 301 305 310 308 302 294 291 287 283 280 276 272 267
304 304 303 306 306 306 307 304 303 305 298 295 293 294 295 300 300 299 297 299 304 307 307 296 311 307 312 315 322 319 325 311 302 296 284 277 272 268
306 309 306 306 305 311 308 310 307 303 302 298 298 298 296 297 297 298 301 302 302 309 320 305 308 308 317 323 329 326 322 320 322 319 297 290 284 276
312 309 307 306 309 310 311 309 306 306 305 311 307 300 301 302 303 298 296 298 304 307 314 309 312 319 317 312 319 326 328 327 327 326 311 306 305 290
311 311 309 309 311 308 308 305 301 306 305 304 304 306 306 308 305 302 305 304 305 298 318 311 305 309 301 302 316 326 325 327 327 328 325 322 313 298
311 307 307 310 307 310 311 308 309 305 304 305 305 307 310 315 319 317 317 317 314 308 319 318 304 306 306 300 299 322 324 326 329 326 322 321 318 310
308 310 309 308 311 316 315 315 314 312 308 305 305 311 317 320 321 323 322 322 317 321 323 325 315 312 307 299 296 305 310 326 330 324 328 327 329 329
312 311 308 310 315 316 320 318 314 312 309 307 308 316 321 322 324 326 323 326 323 327 329 333 326 318 312 305 303 305 324 306 324 333 336 338 338 334
310 311 311 315 315 318 317 319 322 321 318 319 319 322 325 325 328 331 330 326 322 327 331 337 333 324 316 321 313 323 319 320 329 335 340 338 340 339
314 311 314 314 316 319 320 323 329 330 329 328 329 329 328 330 332 333 330 329 326 330 331 338 334 329 331 331 313 314 327 328 330 339 341 340 336 346
318 317 317 317 319 319 322 328 332 334 334 333 332 333 332 330 332 334 334 330 328 331 332 333 333 332 323 316 329 338 331 334 334 336 344 346 341 344
322 322 320 321 323 326 331 333 333 335 335 335 335 334 334 332 333 334 333 329 329 330 329 335 334 328 317 308 310 326 350 335 336 334 345 345 349 3
326 327 329 329 331 333 333 333 333 335 336 335 337 337 337 335 335 336 334 332 326 328 323 327 333 330 320 326 314 318 341 350 341 336 347 348 349 354
332 334 336 336 334 333 333 333 333 337 339 338 339 340 341 340 338 336 335 331 329 328 325 326 331 336 333 326 319 328 343 351 353 354 354 356 359 349
342 339 338 337 336 335 334 334 335 337 338 335 339 341 341 339 342 339 335 333 333 328 327 327 333 338 334 329 324 332 347 355 358 0 7 3 19 22